COSMOS 1275 DEB, 12661

Orbit data source: Space-Track

COSMOS 1275 DEB, 12661 is space debris in LEO originally from a launch on Thu, 04 Jun 1981 UTC launched from the Plesetsk Missile And Space Complex (PKMTR). Debris objects in space refer to the collection of defunct objects orbiting the Earth. Examples of debris include non-operational satellites, rocket bodies, and fragments generated from explosions, collisions, or faulty payload assembly.

Loading next visibility...
Identifier
12661, 1981-053R
Orbit
LEO
Country
Flag of CISCIS
Related business
Manufacturer
Unknown
Mission
Spacecraft
Bus & Motor
Unknown
Mass
Unknown
Launch date (UTC)
1981-06-04 (45 years ago)
Launch vehicle
Unknown
Launch site
Plesetsk Missile And Space Complex (PKMTR)
Object type
Payload
Rocket body
Debris
Shape & HBR
Unknown shape, 0.1 m
Radar Cross Section
Small (<0.1 m²)

Expand to show TLE details & history
Last TLE update: 10 hours ago

TLE from 10 hours ago
0 COSMOS 1275 DEB
1 12661U 81053R   26104.57361561  .00000642  00000-0  65394-3 0  9992
2 12661  82.7990 313.3205 0120320  27.0839  31.3466 13.72251976221288
Epoch: 2026-04-14T13:46Z
TLE epoch observation values (Epoch: 2026-04-14T13:46:00.388Z)
Latitude
58.50453°
Longitude
-84.09162°
Altitude
925.924 km
Speed
7.432 km/s
True Right ascension
21h 40m 37s
True Declination
58° 21' 17"
Sunlit
Object was in daylight at epoch
Visualization orbit readout
Latitude
Unknown
Longitude
Unknown
Altitude
Unknown
Speed
Unknown
Apparent Right ascension
Unknown
Apparent Declination
Unknown
Sunlit
N/A
Visualization observer readout
Local Sidereal Time
06:00:48
Azimuth
Unknown
Elevation
Unknown
Doppler factor
Unknown
Orbital elements
Apogee altitude
1,077.292 km
Perigee altitude
900.017 km
Semi-major axis
7,366.792 km
Eccentricity
0.01203
Inclination
82.799°
RAAN
313.3205°
Arg. of periapsis
27.0839°
True anomaly
32.07316°
Mean anomaly
31.3466°
Eccentric anomaly
31.70894°
Mean motion
3.43262 °/min
Orbital period
104.88 mins
BSTAR
0.00065394
Loading maneuver chart data...
Computing Atmospheric mass density...
Loading historical data...
Loading historical data...
Loading historical data...
Loading historical data...
Loading historical data...
Loading historical data...
Loading historical data...

Documentation

Showing up to 5 results
|